[[{"header":{"parameterUnit":"m.s-1","parameterCategory":2,"la1":30.2991,"la2":30.254,"lo1":-89.0895,"lo2":-89.0444,"dy":0.0017,"dx":0.0017,"nx":28,"ny":28,"refTime":"2025-03-07T09:00:00:Z","depth":"0","parameterNumber":2,"parameterNumberName":"U-component_of_CURRENTS"},"data":[0,0,0,0,0,0,0,0,0,0,0,0,0,0,0,0,0,0,0,0,0,0,0,0,0,0,0,0,0,0,0,0,0,0,0,0,0,0,0,0,0,0,0,0,0,0,0,0,0,0,0,0,0,0,0,0,0,0,0.2763,0.2764,0,0.2782,0.2782,0.2782,0.2773,0.2773,0.2773,0.2772,0.2768,0.2768,0.2769,0,0,0,0,0,0,0,0,0,0,0,0,0,0.2763,0.2762,0.2763,0.2764,0.2764,0.2782,0.2782,0.2782,0.2773,0.2773,0.2772,0.2772,0.2768,0.2768,0.2769,0,0,0,0,0,0,0,0,0,0,0,0,0,0.2768,0.2762,0.2763,0.2764,0.2764,0.2782,0.2782,0.2782,0.2773,0.2773,0.2772,0.2772,0.2768,0.2768,0.2769,0.2777,0,0,0.2769,0.2769,0,0,0,0,0,0,0,0,0.2767,0.2767,0.2763,0.2764,0.2764,0.2777,0.2781,0.278,0.2773,0.2767,0.2772,0.2772,0.2771,0.2771,0.2772,0.2777,0.2777,0.2769,0.2769,0.2769,0.2769,0,0,0,0,0,0,0,0.2767,0.2767,0.2768,0.2764,0.2764,0.2779,0.2778,0.2781,0.2768,0.2767,0.2767,0.2774,0.2771,0.2772,0.2772,0.2777,0.2769,0.2769,0.2769,0.277,0.2854,0.2856,0,0,0,0,0,0,0.2768,0.2766,0.2767,0.2769,0.2768,0.2779,0.2778,0.2771,0.2769,0.2769,0.2774,0.2774,0.2772,0.2772,0.2772,0.283,0.2769,0.277,0.277,0.2852,0.2854,0.2857,0,0,0,0,0,0,0.2768,0.2767,0.2767,0.2771,0.2772,0.2779,0.2772,0.2772,0.2778,0.2775,0.2774,0.2781,0.2771,0.2771,0.2798,0.2828,0.277,0.277,0.2849,0.2853,0.2856,0.2915,0,0,0,0,0,0,0.2767,0.2767,0.2766,0.2771,0.2772,0.2794,0.2772,0.2773,0.2783,0.2783,0.278,0.2779,0.2771,0.2798,0.2798,0.2827,0.277,0.2847,0.2851,0.2855,0.2911,0.292,0.2928,0,0,0,0,0,0.2767,0.2772,0.2765,0.2766,0.2769,0.2796,0.2798,0.28,0.2784,0.28,0.2802,0.2779,0.2823,0.2799,0.2799,0.2829,0.2845,0.285,0.2854,0.2907,0.2918,0.2928,0,0,0,0,0,0,0.278,0.2772,0.2765,0.2768,0.2787,0.2795,0.281,0.2805,0.2817,0.2813,0.2801,0.2802,0.2838,0.283,0.2804,0.2869,0.2832,0.2837,0.2872,0.2883,0.2892,0.288,0.277,0,0,0,0,0,0.278,0.2776,0.2783,0.279,0.2798,0.2802,0.2812,0.2813,0.2824,0.2828,0.2826,0.2834,0.2858,0.2866,0.288,0.2909,0.291,0.2932,0.2941,0.2948,0.2941,0.2988,0.3,0.2872,0.2872,0.2872,0,0,0.2793,0.2785,0.2786,0.2793,0.2802,0.2823,0.2807,0.2828,0.2848,0.2826,0.2851,0.2861,0.2874,0.2915,0.293,0.291,0.2988,0.2954,0.296,0.2949,0.2995,0.3007,0.3018,0.2876,0.2875,0.2875,0,0,0.2812,0.2804,0.2807,0.2822,0.2836,0.2845,0.2853,0.2864,0.2873,0.2902,0.29,0.2927,0.2951,0.2971,0.2984,0.3048,0.3034,0.306,0.3091,0.3138,0.3148,0.3157,0.318,0.3191,0.3063,0.3063,0.3063,0,0.283,0.282,0.282,0.2831,0.2845,0.2856,0.2875,0.2896,0.2916,0.2927,0.2919,0.2974,0.2977,0.3037,0.3062,0.3066,0.3085,0.3047,0.3148,0.3157,0.3165,0.3186,0.3197,0.3067,0.3066,0.3066,0.3066,0,0.2845,0.2847,0.2857,0.2866,0.2889,0.291,0.2936,0.2959,0.2966,0.2981,0.3034,0.3052,0.3084,0.31,0.3097,0.3168,0.316,0.3154,0.3116,0.3182,0.32,0.321,0.3072,0.307,0.3069,0.3069,0,0,0.2857,0.2864,0.2867,0.2866,0.2902,0.2917,0.2967,0.3005,0.303,0.3064,0.3105,0.3152,0.3159,0.3175,0.3188,0.3223,0.3296,0.3215,0.3216,0.3227,0.3393,0.3288,0.3289,0.3316,0.3318,0.332,0.3384,0,0.2868,0.2875,0.2886,0.2913,0.2918,0.2951,0.2993,0.3033,0.3069,0.3117,0.3157,0.3204,0.3194,0.3217,0.3257,0.3288,0.3325,0.3278,0.3336,0.3337,0.3227,0.3298,0.3108,0.314,0.3394,0.3395,0.3397,0,0.2863,0.2869,0.2881,0.2905,0.2914,0.2941,0.2994,0.3038,0.3119,0.3148,0.3211,0.3248,0.3319,0.3298,0.3386,0.3361,0.3381,0.3396,0.34,0.3281,0.325,0.3116,0.3149,0.3083,0.3412,0.3411,0.341,0,0.2828,0.2857,0.2857,0.2868,0.2912,0.293,0.2967,0.3039,0.3085,0.3177,0.3223,0.3306,0.3354,0.3408,0.3442,0.3429,0.3525,0.3511,0.3435,0.3427,0.3262,0.3235,0.3222,0.3572,0.3572,0.3572,0.3571,0,0.2806,0.2808,0.2835,0.2836,0.2857,0.29,0.2945,0.2994,0.3089,0.3152,0.3237,0.3299,0.3386,0.3452,0.3475,0.3481,0.3557,0.3445,0.3442,0.3277,0.3253,0.3183,0.3158,0.3574,0.3573,0.3573,0.3573,0,0.2756,0.277,0.2776,0.2819,0.2831,0.2849,0.293,0.2978,0.3061,0.3154,0.3194,0.3315,0.3386,0.3454,0.3533,0.3505,0.3422,0.3513,0.3299,0.3268,0.3095,0.308,0.2956,0.2877,0.3433,0.3431,0.3429,0,0.2722,0.2716,0.2754,0.2769,0.2787,0.2824,0.2864,0.2952,0.3015,0.3154,0.3203,0.3303,0.335,0.3417,0.3382,0.3393,0.3346,0.3228,0.3156,0.306,0.3045,0.2961,0.2899,0.2973,0.2968,0.2964,0.296,0,0.2684,0.27,0.272,0.2743,0.2772,0.2806,0.2868,0.2908,0.3024,0.3081,0.3167,0.321,0.325,0.3159,0.3157,0.3142,0.3046,0.3135,0.3103,0.2731,0.2573,0.2502,0.2957,0.2921,0.2925,0.2928,0.293,0.2931,0.2672,0.2679,0.2711,0.2718,0.2751,0.2775,0.2763,0.2835,0.2883,0.2914,0.3042,0.3003,0.298,0.2923,0.2894,0.2712,0.2762,0.2619,0.2627,0.2566,0.2417,0.2768,0.2684,0.2687,0.2689,0.2691,0.2692,0,0.2651,0.2665,0.2686,0.2686,0.2676,0.2714,0.2752,0.2708,0.2688,0.2734,0.2742,0.2651,0.2541,0.2512,0.235,0.2231,0.2148,0.2182,0.2037,0.2019,0.2386,0.2293,0.2037,0.2037,0.2037,0.2038,0.2038,0.2038,0.2655,0.2653,0.2645,0.2598,0.2587,0.2524,0.2508,0.2449,0.2438,0.2308,0.2207,0.2201,0.2234,0.2145,0.1979,0.1917,0.1809,0.1674,0.1761,0.2037,0.2079,0.212,0.2028,0.1721,0.1721,0.1276,0.1272,0.127]},{"header":{"parameterUnit":"m.s-1","parameterCategory":2,"la1":30.2991,"la2":30.254,"lo1":-89.0895,"lo2":-89.0444,"dy":0.0017,"dx":0.0017,"nx":28,"ny":28,"refTime":"2025-03-07T09:00:00:Z","depth":"0","parameterNumber":3,"parameterNumberName":"V-component_of_CURRENTS"},"data":[0,0,0,0,0,0,0,0,0,0,0,0,0,0,0,0,0,0,0,0,0,0,0,0,0,0,0,0,0,0,0,0,0,0,0,0,0,0,0,0,0,0,0,0,0,0,0,0,0,0,0,0,0,0,0,0,0,0,0.0184,0.0184,0,0.0164,0.0164,0.0164,0.0133,0.0133,0.0132,0.0132,0.0079,0.0078,0.0077,0,0,0,0,0,0,0,0,0,0,0,0,0,0.0153,0.0154,0.0184,0.0184,0.0184,0.0164,0.0164,0.0164,0.0133,0.0133,0.0132,0.0132,0.0079,0.0078,0.0077,0,0,0,0,0,0,0,0,0,0,0,0,0,0.0152,0.0154,0.0184,0.0167,0.0166,0.0165,0.0164,0.0164,0.0133,0.0133,0.0132,0.0131,0.0079,0.0078,0.0076,0.008,0,0,0.0072,0.0071,0,0,0,0,0,0,0,0,0.0152,0.0153,0.017,0.0168,0.0167,0.0152,0.0134,0.0134,0.0133,0.0144,0.0132,0.0131,0.0101,0.0098,0.0094,0.0077,0.0075,0.0072,0.0071,0.007,0.007,0,0,0,0,0,0,0,0.0153,0.0154,0.0175,0.017,0.0168,0.0146,0.0146,0.0134,0.0125,0.0143,0.0141,0.0141,0.01,0.0096,0.0093,0.0074,0.0072,0.007,0.0069,0.0069,0.0085,0.0086,0,0,0,0,0,0,0.0161,0.0154,0.0176,0.0174,0.0159,0.0148,0.0147,0.0156,0.0126,0.0121,0.0142,0.014,0.0099,0.0094,0.0091,0.0116,0.007,0.0069,0.0068,0.0083,0.0085,0.0086,0,0,0,0,0,0,0.0161,0.0164,0.0176,0.0164,0.0164,0.015,0.016,0.0156,0.0151,0.0125,0.012,0.014,0.0098,0.0093,0.0091,0.0113,0.0068,0.0067,0.0082,0.0084,0.0086,0.0152,0,0,0,0,0,0,0.016,0.0164,0.017,0.0165,0.0166,0.0185,0.016,0.0156,0.0153,0.015,0.0122,0.0117,0.0097,0.0094,0.009,0.011,0.0065,0.008,0.0083,0.0085,0.0148,0.0156,0.0163,0,0,0,0,0,0.0159,0.0177,0.0171,0.0173,0.0177,0.0186,0.0185,0.017,0.0153,0.016,0.0144,0.0117,0.0107,0.0094,0.0089,0.0109,0.0079,0.0082,0.0085,0.0145,0.0154,0.0162,0,0,0,0,0,0,0.0165,0.0175,0.0169,0.0187,0.019,0.0182,0.0185,0.0174,0.0165,0.016,0.0131,0.0125,0.0132,0.0114,0.01,0.0123,0.009,0.0092,0.0138,0.0146,0.0153,0.0171,0.0064,0,0,0,0,0,0.017,0.0187,0.0189,0.0204,0.0207,0.0195,0.0195,0.0187,0.018,0.0175,0.0158,0.0144,0.0142,0.0138,0.013,0.0139,0.0129,0.0151,0.0159,0.0165,0.0177,0.0188,0.0197,0.0096,0.0096,0.0096,0,0,0.0176,0.0184,0.0192,0.0206,0.0203,0.0222,0.0193,0.02,0.0217,0.0171,0.0184,0.0166,0.015,0.0164,0.0166,0.015,0.0188,0.0169,0.0174,0.0183,0.0192,0.0201,0.021,0.0098,0.0098,0.0098,0,0,0.0203,0.0204,0.0228,0.0236,0.0242,0.024,0.0245,0.0241,0.0241,0.0253,0.0227,0.0227,0.0216,0.0216,0.0214,0.0257,0.0225,0.0251,0.0302,0.0312,0.032,0.0328,0.0325,0.0332,0.0256,0.0256,0.0256,0,0.0207,0.0241,0.0235,0.0262,0.0276,0.0252,0.0284,0.0284,0.028,0.0292,0.0267,0.0273,0.0248,0.028,0.029,0.0275,0.0269,0.0268,0.0322,0.0329,0.0335,0.0331,0.0337,0.0259,0.0259,0.0259,0.0258,0,0.0255,0.028,0.0295,0.0324,0.0338,0.0359,0.0365,0.0373,0.0364,0.0366,0.0391,0.0365,0.0373,0.0362,0.0335,0.0372,0.035,0.0328,0.0299,0.0349,0.0341,0.0347,0.0265,0.0263,0.0262,0.0261,0,0,0.0274,0.0321,0.0326,0.0355,0.0375,0.0396,0.0426,0.0456,0.0486,0.0475,0.0524,0.0505,0.0488,0.0485,0.0455,0.0454,0.0478,0.041,0.0408,0.0407,0.0494,0.0455,0.0457,0.0463,0.0464,0.0466,0.0469,0,0.0313,0.0379,0.0392,0.0453,0.0489,0.0488,0.0525,0.0546,0.0555,0.0592,0.0578,0.0605,0.0538,0.0548,0.0538,0.0498,0.0496,0.0479,0.0446,0.0445,0.0404,0.0463,0.0447,0.0447,0.0474,0.0475,0.0476,0,0.0358,0.0399,0.0469,0.0532,0.0548,0.0579,0.0637,0.0669,0.0706,0.0717,0.0737,0.0724,0.0733,0.0668,0.0634,0.0625,0.0568,0.0527,0.0525,0.0473,0.0418,0.0402,0.0455,0.037,0.0483,0.0483,0.0482,0,0.0386,0.0454,0.0515,0.0535,0.0599,0.0632,0.0665,0.0707,0.0756,0.0804,0.0849,0.0843,0.0859,0.0798,0.0703,0.0675,0.066,0.0612,0.0526,0.0522,0.0494,0.0485,0.0463,0.0594,0.0594,0.0594,0.0594,0,0.0429,0.0477,0.0532,0.0567,0.0647,0.0675,0.076,0.0787,0.0855,0.0942,0.092,0.0989,0.089,0.0867,0.0762,0.0669,0.0708,0.0553,0.0531,0.0515,0.0509,0.042,0.036,0.0594,0.0594,0.0594,0.0594,0,0.0457,0.0489,0.0565,0.0638,0.0664,0.0724,0.0824,0.0891,0.0939,0.1057,0.1086,0.1108,0.108,0.0969,0.0874,0.0752,0.0601,0.0612,0.0593,0.0568,0.0391,0.0335,0.028,0.0241,0.0525,0.0524,0.0524,0,0.0481,0.0521,0.0614,0.0668,0.0704,0.0792,0.0862,0.0928,0.1012,0.1143,0.1215,0.1224,0.1254,0.1094,0.0884,0.0708,0.0602,0.0556,0.0494,0.0398,0.032,0.028,0.0248,0.0482,0.0481,0.048,0.0479,0,0.0531,0.0558,0.0623,0.0727,0.0807,0.0907,0.1011,0.1088,0.1193,0.13,0.1431,0.1466,0.1318,0.1137,0.087,0.0735,0.0486,0.0533,0.0452,0.0305,0.0245,0.0191,0.0451,0.0472,0.0473,0.0474,0.0474,0.0474,0.0567,0.062,0.07,0.0798,0.0893,0.1012,0.1103,0.1228,0.1375,0.1538,0.157,0.1636,0.1356,0.0999,0.0806,0.0434,0.044,0.031,0.0257,0.0232,0.0175,0.0413,0.0393,0.0393,0.0394,0.0394,0.0394,0,0.0615,0.0674,0.0768,0.0887,0.099,0.1034,0.12,0.1305,0.1484,0.162,0.1728,0.1615,0.1285,0.0938,0.043,0.0195,0.0121,0.0079,0.0027,0.0013,0.0245,0.0224,0.0147,0.0147,0.0147,0.0147,0.0147,0.0147,0.0647,0.0734,0.0777,0.0942,0.1028,0.1175,0.127,0.143,0.1557,0.1707,0.173,0.1727,0.1452,0.0619,0.0089,-0.0026,-0.0162,-0.0209,-0.0256,-0.0101,-0.0083,-0.0066,-0.0097,-0.0241,-0.0242,-0.0458,-0.0461,-0.0463]}],[{"header":{"parameterUnit":"m.s-1","parameterCategory":2,"la1":30.2991,"la2":30.254,"lo1":-89.0895,"lo2":-89.0444,"dy":0.0017,"dx":0.0017,"nx":28,"ny":28,"refTime":"2025-03-07T09:00:00:Z","depth":"2","parameterNumber":2,"parameterNumberName":"U-component_of_CURRENTS"},"data":[0,0,0,0,0,0,0,0,0,0,0,0,0,0,0,0,0,0,0,0,0,0,0,0,0,0,0,0,0,0,0,0,0,0,0,0,0,0,0,0,0,0,0,0,0,0,0,0,0,0,0,0,0,0,0,0,0,0,0.1993,0.1993,0,0.1994,0.1994,0.1994,0.1997,0.1997,0.1997,0.1997,0.2019,0.2019,0.202,0,0,0,0,0,0,0,0,0,0,0,0,0,0.198,0.198,0.1993,0.1993,0.1993,0.1994,0.1994,0.1994,0.1997,0.1997,0.1997,0.1997,0.2019,0.2019,0.202,0,0,0,0,0,0,0,0,0,0,0,0,0,0.1984,0.198,0.1993,0.1995,0.1995,0.1994,0.1994,0.1994,0.1997,0.1997,0.1997,0.1997,0.2018,0.2019,0.202,0.2023,0,0,0.2022,0.2023,0,0,0,0,0,0,0,0,0.1983,0.1984,0.1994,0.1994,0.1995,0.1995,0.1997,0.2005,0.1997,0.1996,0.1997,0.1997,0.2013,0.2014,0.2014,0.2024,0.2025,0.2022,0.2023,0.2023,0.2023,0,0,0,0,0,0,0,0.1983,0.1984,0.1993,0.1994,0.1994,0.1991,0.1991,0.1999,0.2004,0.1996,0.1996,0.1996,0.2013,0.2013,0.2014,0.2025,0.2022,0.2023,0.2024,0.2024,0.2079,0.208,0,0,0,0,0,0,0.1984,0.1984,0.1993,0.1993,0.1989,0.1991,0.1992,0.1995,0.2004,0.2005,0.1996,0.1996,0.2011,0.2013,0.2015,0.2075,0.2023,0.2024,0.2024,0.2078,0.2079,0.208,0,0,0,0,0,0,0.1984,0.1985,0.1993,0.1988,0.1989,0.1991,0.1995,0.1995,0.2009,0.2004,0.2005,0.2011,0.2012,0.2014,0.203,0.2074,0.2024,0.2025,0.2077,0.2078,0.2079,0.216,0,0,0,0,0,0,0.1983,0.1985,0.1992,0.1989,0.199,0.2011,0.1995,0.1995,0.2008,0.2009,0.2017,0.2018,0.2012,0.2028,0.203,0.2074,0.2026,0.2075,0.2077,0.2079,0.2156,0.2164,0.2171,0,0,0,0,0,0.1983,0.1991,0.1992,0.1994,0.1998,0.2012,0.2013,0.2014,0.2009,0.2025,0.2021,0.2019,0.2042,0.203,0.2032,0.2077,0.2074,0.2077,0.2079,0.2153,0.2163,0.2171,0,0,0,0,0,0,0.1993,0.1992,0.1993,0.2003,0.2016,0.2013,0.2025,0.2024,0.2033,0.2033,0.2026,0.2027,0.2071,0.205,0.2037,0.2096,0.206,0.2063,0.2116,0.2125,0.2132,0.2126,0.2026,0,0,0,0,0,0.1998,0.2004,0.2008,0.202,0.2027,0.2029,0.2035,0.2037,0.204,0.2045,0.2046,0.205,0.2079,0.2081,0.2099,0.2117,0.2113,0.2147,0.2155,0.2161,0.2156,0.219,0.22,0.2087,0.2087,0.2087,0,0,0.1999,0.2006,0.2006,0.2023,0.2031,0.2045,0.2034,0.2051,0.2066,0.2046,0.2067,0.2086,0.2093,0.2128,0.2144,0.2115,0.2193,0.2164,0.217,0.2161,0.2193,0.2204,0.2214,0.2089,0.2089,0.2088,0,0,0.201,0.2021,0.2028,0.2042,0.2059,0.2066,0.2075,0.2081,0.2092,0.2114,0.2117,0.2148,0.2168,0.2184,0.2196,0.2247,0.2245,0.2262,0.2281,0.2315,0.2325,0.2333,0.2353,0.2363,0.2249,0.2249,0.2249,0,0.2015,0.2026,0.2036,0.2052,0.2061,0.2078,0.209,0.2109,0.2119,0.2134,0.2131,0.219,0.2197,0.2251,0.2269,0.2268,0.2278,0.2252,0.2326,0.2335,0.2342,0.236,0.237,0.2253,0.2253,0.2253,0.2252,0,0.2029,0.2041,0.2052,0.2076,0.2091,0.211,0.2131,0.2154,0.2171,0.2188,0.225,0.2265,0.2291,0.2317,0.2308,0.2372,0.2361,0.2349,0.2307,0.2359,0.2374,0.2382,0.2259,0.2258,0.2257,0.2256,0,0,0.2019,0.2053,0.2054,0.2063,0.2103,0.2111,0.2154,0.2193,0.2222,0.2259,0.2299,0.2359,0.237,0.2382,0.2392,0.2417,0.2485,0.2401,0.2401,0.2426,0.2557,0.2461,0.2461,0.2492,0.2494,0.2495,0.2551,0,0.2026,0.2049,0.2067,0.209,0.2102,0.2134,0.2173,0.2212,0.2254,0.2298,0.2346,0.2401,0.2396,0.2423,0.245,0.2488,0.2509,0.247,0.2497,0.2497,0.2412,0.2468,0.2265,0.2289,0.2559,0.256,0.2561,0,0.2023,0.204,0.2061,0.2093,0.2102,0.2128,0.2185,0.2219,0.2298,0.2334,0.2394,0.2434,0.2499,0.2479,0.256,0.2539,0.2546,0.2565,0.2567,0.2451,0.2417,0.2278,0.2294,0.2575,0.2574,0.2573,0.2572,0,0.1993,0.2027,0.2043,0.2054,0.2103,0.2126,0.2161,0.2234,0.2276,0.2362,0.2412,0.2485,0.2533,0.2573,0.2606,0.2595,0.2679,0.2665,0.2584,0.2578,0.2391,0.2365,0.2704,0.2704,0.2704,0.2704,0.2704,0,0.1984,0.1986,0.2033,0.2037,0.2071,0.2109,0.216,0.221,0.2294,0.2349,0.2427,0.2482,0.2561,0.2615,0.263,0.2633,0.2698,0.2596,0.2589,0.2413,0.2389,0.2617,0.2607,0.2706,0.2705,0.2705,0.2705,0,0.1939,0.1969,0.1982,0.2034,0.2057,0.2078,0.2158,0.2191,0.2287,0.2361,0.2398,0.2505,0.2574,0.2632,0.2695,0.2655,0.2675,0.2648,0.2429,0.2394,0.2545,0.2538,0.2578,0.2575,0.2573,0.2571,0.2569,0,0.1915,0.1926,0.1971,0.1984,0.201,0.2055,0.2087,0.2178,0.2214,0.2363,0.2386,0.2497,0.2529,0.259,0.2559,0.2564,0.263,0.2354,0.2284,0.2545,0.2535,0.2531,0.2527,0.2081,0.2076,0.2071,0.2068,0,0.1874,0.1895,0.1903,0.1937,0.1965,0.2,0.2053,0.208,0.2182,0.2244,0.2315,0.2364,0.2427,0.2328,0.2331,0.2304,0.234,0.226,0.2605,0.2135,0.2078,0.2068,0.208,0.2027,0.2031,0.2034,0.2036,0.2038,0.1835,0.1839,0.1857,0.188,0.1911,0.1929,0.1919,0.196,0.1994,0.205,0.2159,0.2156,0.2176,0.2075,0.2004,0.1949,0.2113,0.2008,0.2022,0.204,0.1963,0.1903,0.1806,0.1809,0.1811,0.1813,0.1815,0,0.1798,0.1802,0.1804,0.1815,0.18,0.1855,0.1877,0.1833,0.1804,0.1875,0.1905,0.1757,0.1686,0.1722,0.157,0.1546,0.1533,0.148,0.1451,0.1492,0.1529,0.1425,0.1126,0.1124,0.1122,0.112,0,0,0.1769,0.1746,0.1742,0.1694,0.1705,0.1657,0.1644,0.1587,0.1593,0.1543,0.1524,0.1648,0.1687,0.1403,0.1347,0.1213,0.1349,0.1161,0.1717,0.1727,0.1761,0.1837,0.1724,0,0,0,0,0]},{"header":{"parameterUnit":"m.s-1","parameterCategory":2,"la1":30.2991,"la2":30.254,"lo1":-89.0895,"lo2":-89.0444,"dy":0.0017,"dx":0.0017,"nx":28,"ny":28,"refTime":"2025-03-07T09:00:00:Z","depth":"2","parameterNumber":3,"parameterNumberName":"V-component_of_CURRENTS"},"data":[0,0,0,0,0,0,0,0,0,0,0,0,0,0,0,0,0,0,0,0,0,0,0,0,0,0,0,0,0,0,0,0,0,0,0,0,0,0,0,0,0,0,0,0,0,0,0,0,0,0,0,0,0,0,0,0,0,0,0.0115,0.0115,0,0.0101,0.0101,0.0101,0.0082,0.0082,0.0082,0.0082,0.005,0.0049,0.0048,0,0,0,0,0,0,0,0,0,0,0,0,0,0.0084,0.0084,0.0115,0.0115,0.0115,0.0101,0.0101,0.0101,0.0082,0.0082,0.0082,0.0082,0.005,0.0049,0.0048,0,0,0,0,0,0,0,0,0,0,0,0,0,0.0086,0.0085,0.0115,0.0105,0.0104,0.0101,0.0101,0.0101,0.0082,0.0082,0.0082,0.0081,0.005,0.0049,0.0048,0.0049,0,0,0.0045,0.0045,0,0,0,0,0,0,0,0,0.0086,0.0087,0.0106,0.0105,0.0104,0.0094,0.0078,0.0083,0.0082,0.009,0.0082,0.0081,0.0063,0.0061,0.0059,0.0048,0.0046,0.0045,0.0045,0.0044,0.0044,0,0,0,0,0,0,0,0.0085,0.0087,0.0109,0.0106,0.0105,0.0086,0.0087,0.0079,0.0078,0.0089,0.0088,0.0088,0.0063,0.006,0.0058,0.0046,0.0045,0.0044,0.0044,0.0043,0.0034,0.0034,0,0,0,0,0,0,0.0092,0.0087,0.0109,0.0108,0.0095,0.0087,0.0088,0.0097,0.0078,0.0075,0.0088,0.0087,0.0061,0.0059,0.0057,0.0067,0.0044,0.0043,0.0043,0.0033,0.0034,0.0034,0,0,0,0,0,0,0.0091,0.0094,0.011,0.0097,0.0098,0.0089,0.0099,0.0097,0.0093,0.0078,0.0074,0.0087,0.0061,0.0058,0.0053,0.0065,0.0043,0.0042,0.0033,0.0034,0.0034,0.0082,0,0,0,0,0,0,0.0091,0.0094,0.0101,0.0098,0.0099,0.0114,0.0099,0.0097,0.0094,0.0092,0.0076,0.0072,0.0061,0.0054,0.0052,0.0064,0.0041,0.0033,0.0033,0.0034,0.008,0.0084,0.0087,0,0,0,0,0,0.009,0.0104,0.0102,0.0104,0.011,0.0115,0.0114,0.0104,0.0094,0.0098,0.0085,0.0073,0.0056,0.0054,0.0051,0.0063,0.0032,0.0033,0.0034,0.0078,0.0083,0.0087,0,0,0,0,0,0,0.0091,0.0103,0.0101,0.0117,0.0118,0.0112,0.0114,0.0107,0.0099,0.0096,0.0077,0.0074,0.0074,0.006,0.0058,0.0061,0.0042,0.0042,0.0077,0.0081,0.0085,0.01,0.004,0,0,0,0,0,0.0096,0.0111,0.0114,0.0126,0.0128,0.0121,0.012,0.0115,0.0109,0.0105,0.0093,0.008,0.0075,0.0071,0.0062,0.0065,0.0049,0.0069,0.0073,0.0076,0.0086,0.0072,0.0076,0.0037,0.0037,0.0037,0,0,0.0099,0.0107,0.0115,0.0127,0.0126,0.0139,0.012,0.0124,0.0135,0.0103,0.0111,0.0093,0.0078,0.0082,0.008,0.0072,0.0079,0.0077,0.008,0.0088,0.0074,0.0078,0.0081,0.0037,0.0037,0.0037,0,0,0.0116,0.0121,0.014,0.0147,0.0152,0.015,0.0153,0.015,0.015,0.0154,0.0134,0.0126,0.0115,0.011,0.0105,0.0124,0.0099,0.0117,0.015,0.0137,0.014,0.0143,0.0126,0.0126,0.0119,0.0119,0.0119,0,0.0117,0.0148,0.0145,0.0165,0.0176,0.0158,0.0181,0.018,0.0175,0.018,0.0163,0.0151,0.0133,0.0144,0.0147,0.0134,0.0118,0.0135,0.0142,0.0145,0.0147,0.0129,0.0129,0.0122,0.0121,0.0121,0.0121,0,0.0154,0.0175,0.0186,0.0211,0.0219,0.0235,0.0237,0.0241,0.0234,0.0231,0.0236,0.021,0.0204,0.0195,0.0176,0.0184,0.0165,0.0149,0.0134,0.0154,0.0133,0.0133,0.0125,0.0124,0.0124,0.0123,0,0,0.0165,0.0205,0.0209,0.0233,0.0247,0.0262,0.0281,0.0299,0.0318,0.03,0.0323,0.0301,0.0279,0.0272,0.0245,0.0231,0.0224,0.0197,0.0195,0.0185,0.0191,0.0163,0.016,0.0206,0.0207,0.0207,0.017,0,0.0195,0.0248,0.0257,0.0304,0.0333,0.033,0.0355,0.0366,0.0366,0.0379,0.0352,0.036,0.0311,0.0311,0.0287,0.0246,0.0225,0.0236,0.0169,0.0167,0.0144,0.0159,0.0174,0.0141,0.0169,0.0169,0.0169,0,0.0231,0.0265,0.032,0.0368,0.038,0.0401,0.044,0.0462,0.0471,0.0472,0.0463,0.0438,0.0421,0.0374,0.0311,0.0318,0.0258,0.0218,0.0216,0.0175,0.0139,0.0125,0.0139,0.0168,0.0168,0.0168,0.0168,0,0.0255,0.0309,0.0357,0.0373,0.042,0.0444,0.0467,0.0489,0.0525,0.0532,0.0555,0.0514,0.0509,0.0433,0.0338,0.0327,0.0263,0.0238,0.0155,0.0152,0.0145,0.0141,0.0189,0.0189,0.0189,0.0189,0.019,0,0.029,0.0328,0.0374,0.0402,0.0465,0.0482,0.0545,0.056,0.0597,0.0652,0.0605,0.0632,0.0524,0.047,0.0368,0.0263,0.0283,0.0167,0.0145,0.0161,0.0159,0.0166,0.0164,0.0188,0.0188,0.0189,0.0189,0,0.0313,0.034,0.0401,0.0458,0.048,0.0526,0.0603,0.0653,0.0677,0.0747,0.0758,0.0728,0.0662,0.0541,0.0421,0.0314,0.0209,0.016,0.0183,0.0163,0.0098,0.0099,0.0076,0.0075,0.0074,0.0073,0.0072,0,0.033,0.0365,0.0442,0.0486,0.0514,0.0585,0.0643,0.0689,0.075,0.0811,0.0853,0.0809,0.0784,0.0591,0.0409,0.0233,0.0203,0.0112,0.0092,0.0109,0.0088,0.0091,0.0093,0.0099,0.0098,0.0098,0.0098,0,0.0366,0.039,0.0442,0.0532,0.0599,0.0684,0.0767,0.0827,0.0895,0.0949,0.1001,0.0983,0.0812,0.0634,0.0384,0.026,0.0142,0.0099,0.0121,0.0123,0.0126,0.0108,0.011,0.0095,0.0095,0.0095,0.0095,0.0096,0.039,0.0432,0.0501,0.0587,0.0667,0.0774,0.0848,0.0934,0.1031,0.1113,0.1094,0.1065,0.0869,0.0552,0.0344,0.0123,0.0133,0.0041,0.0044,0.0047,0.0053,0.0055,0.0011,0.001,0.001,0.001,0.001,0,0.043,0.0479,0.0555,0.0659,0.0749,0.0791,0.0929,0.1,0.1107,0.1163,0.1189,0.0996,0.08,0.0575,0.0254,0.0057,0.0048,-0.0016,0.0021,0.0025,0.0029,0.0036,-0.0012,-0.0013,-0.0013,-0.0014,0,0,0.0453,0.0527,0.0565,0.0708,0.0785,0.091,0.0991,0.1083,0.1148,0.1192,0.1172,0.1131,0.0862,0.0623,0.0363,0.0178,0.0145,0.0136,0.0174,0.0252,0.0258,0.008,0.0097,0,0,0,0,0]}],[{"header":{"parameterUnit":"m.s-1","parameterCategory":2,"la1":30.2991,"la2":30.254,"lo1":-89.0895,"lo2":-89.0444,"dy":0.0017,"dx":0.0017,"nx":28,"ny":28,"refTime":"2025-03-07T09:00:00:Z","depth":"4","parameterNumber":2,"parameterNumberName":"U-component_of_CURRENTS"},"data":[0,0,0,0,0,0,0,0,0,0,0,0,0,0,0,0,0,0,0,0,0,0,0,0,0,0,0,0,0,0,0,0,0,0,0,0,0,0,0,0,0,0,0,0,0,0,0,0,0,0,0,0,0,0,0,0,0,0,0.1127,0.1127,0,0.1154,0.1155,0.1155,0.1188,0.1189,0.1189,0.119,0.1233,0.1234,0.1234,0,0,0,0,0,0,0,0,0,0,0,0,0,0.1105,0.1105,0.1127,0.1127,0.1128,0.1154,0.1155,0.1155,0.1188,0.1189,0.1189,0.119,0.1233,0.1234,0.1234,0,0,0,0,0,0,0,0,0,0,0,0,0,0.112,0.1105,0.1127,0.1148,0.115,0.1154,0.1155,0.1155,0.1188,0.1189,0.1189,0.119,0.1233,0.1234,0.1235,0.1222,0,0,0.1237,0.1238,0,0,0,0,0,0,0,0,0.112,0.1121,0.1145,0.1147,0.1149,0.117,0.1163,0.1178,0.1187,0.1172,0.119,0.1191,0.1213,0.1216,0.1217,0.1224,0.1226,0.1237,0.1238,0.1238,0.1238,0,0,0,0,0,0,0,0.1118,0.112,0.1137,0.1145,0.1148,0.1157,0.116,0.1166,0.1187,0.1174,0.1177,0.1181,0.1215,0.1216,0.1219,0.1226,0.1237,0.1238,0.1239,0.1239,0.1312,0.1313,0,0,0,0,0,0,0.1116,0.1119,0.1136,0.1138,0.1138,0.1157,0.116,0.1161,0.1187,0.1192,0.118,0.1182,0.1214,0.1218,0.122,0.1281,0.1238,0.1239,0.124,0.1311,0.1312,0.1314,0,0,0,0,0,0,0.1115,0.1117,0.1135,0.113,0.1133,0.1156,0.1157,0.1161,0.119,0.1191,0.1197,0.1208,0.1215,0.1219,0.1247,0.1281,0.1239,0.124,0.1309,0.1311,0.1313,0.1355,0,0,0,0,0,0,0.1114,0.1116,0.1131,0.113,0.1133,0.1153,0.1157,0.1161,0.119,0.1194,0.1216,0.122,0.1216,0.1246,0.1248,0.1281,0.1241,0.1307,0.131,0.1312,0.1352,0.1359,0.1364,0,0,0,0,0,0.1113,0.1122,0.1131,0.1135,0.1148,0.1154,0.1157,0.1175,0.1191,0.1205,0.1222,0.1221,0.1265,0.1248,0.125,0.1284,0.1306,0.1309,0.1312,0.135,0.1357,0.1364,0,0,0,0,0,0,0.1119,0.1126,0.1137,0.1148,0.116,0.116,0.1178,0.119,0.1214,0.1228,0.123,0.1234,0.1273,0.1272,0.1253,0.1314,0.1289,0.1292,0.1316,0.1324,0.133,0.1338,0.1242,0,0,0,0,0,0.1126,0.1139,0.1144,0.1158,0.1165,0.1178,0.119,0.1202,0.1216,0.1229,0.1245,0.1265,0.1282,0.1299,0.1309,0.1339,0.1341,0.1365,0.1371,0.1376,0.1386,0.1415,0.1424,0.1324,0.1324,0.1324,0,0,0.1132,0.114,0.1148,0.1161,0.1173,0.1185,0.1188,0.1212,0.1232,0.1229,0.1272,0.1285,0.1294,0.1327,0.1346,0.1335,0.1406,0.138,0.1385,0.1392,0.1419,0.1428,0.1437,0.1326,0.1326,0.1326,0,0,0.114,0.1158,0.1169,0.1181,0.1205,0.121,0.1223,0.1241,0.1264,0.1296,0.1304,0.134,0.1363,0.138,0.1389,0.1436,0.1434,0.1447,0.1489,0.1516,0.1524,0.1532,0.1545,0.1553,0.1454,0.1454,0.1454,0,0.1152,0.1162,0.1175,0.1189,0.1204,0.1224,0.124,0.126,0.129,0.1313,0.1319,0.1378,0.1389,0.1431,0.1454,0.1451,0.1461,0.1458,0.1524,0.1531,0.1538,0.155,0.1558,0.1457,0.1456,0.1456,0.1456,0,0.1157,0.118,0.1188,0.1213,0.1231,0.1249,0.1273,0.1306,0.1338,0.1359,0.1417,0.1436,0.1473,0.1487,0.1487,0.1547,0.1536,0.1523,0.1503,0.155,0.156,0.1568,0.146,0.1459,0.1459,0.1458,0,0,0.1144,0.1184,0.1192,0.121,0.1247,0.1258,0.1303,0.134,0.1378,0.1422,0.147,0.1516,0.154,0.1553,0.1565,0.1598,0.1656,0.1591,0.1591,0.16,0.1714,0.1595,0.1592,0.1656,0.1658,0.1659,0.17,0,0.1147,0.1175,0.1198,0.1233,0.1246,0.1286,0.1322,0.1367,0.1412,0.1465,0.1508,0.1558,0.156,0.1593,0.1626,0.1652,0.168,0.1646,0.1671,0.1672,0.1556,0.1599,0.1665,0.1706,0.1708,0.1709,0.171,0,0.1138,0.1161,0.1194,0.1243,0.1255,0.1286,0.1353,0.1391,0.1467,0.1507,0.1569,0.1601,0.1672,0.1659,0.173,0.1711,0.1722,0.1733,0.1735,0.1615,0.1567,0.165,0.1724,0.1723,0.1722,0.1721,0.172,0,0.1107,0.1156,0.1185,0.1201,0.126,0.1297,0.1337,0.1411,0.1454,0.1548,0.1592,0.1662,0.1715,0.1746,0.1782,0.1767,0.1843,0.1816,0.1715,0.1707,0.1782,0.1774,0.1859,0.1859,0.1859,0.1859,0.1859,0,0.1083,0.1111,0.1179,0.1194,0.1237,0.129,0.1352,0.1405,0.1489,0.1539,0.1619,0.1665,0.1744,0.1792,0.1803,0.1785,0.1861,0.173,0.1713,0.1798,0.1792,0.1787,0.1778,0.186,0.186,0.186,0.1859,0,0.1038,0.1085,0.1123,0.1197,0.1223,0.126,0.1354,0.1389,0.1487,0.1557,0.1594,0.1695,0.1754,0.1804,0.1862,0.1804,0.1803,0.1775,0.1871,0.1857,0.1641,0.1634,0.1658,0.1654,0.1651,0.1648,0.1646,0,0.1013,0.1028,0.1115,0.1138,0.1177,0.1242,0.1275,0.1377,0.1413,0.1556,0.1571,0.1678,0.1729,0.1712,0.1773,0.1775,0.1752,0.1733,0.1678,0.1641,0.1623,0.1621,0.1618,0.1641,0.164,0.1639,0.1638,0,0.0961,0.1008,0.1042,0.1089,0.1134,0.117,0.1231,0.1251,0.1365,0.147,0.1515,0.155,0.1607,0.1639,0.1656,0.1654,0.1734,0.1699,0.1704,0.1653,0.1621,0.1605,0.1607,0.1627,0.1629,0.163,0.163,0,0.093,0.0941,0.0993,0.1026,0.1074,0.1079,0.1123,0.1161,0.1216,0.1366,0.1381,0.1492,0.1594,0.1577,0.1595,0.1583,0.1549,0.1483,0.1499,0.1512,0.1443,0.138,0.1304,0,0,0,0,0,0.0887,0.0892,0.0917,0.0946,0.0986,0.1013,0.1078,0.1124,0.1238,0.1229,0.1301,0.1348,0.1384,0.1441,0.1397,0.152,0.155,0.146,0.1481,0.1565,0.1578,0.151,0,0,0,0,0,0,0.0859,0.0887,0.0893,0.0873,0.0872,0.0901,0.0939,0.1012,0.101,0.1136,0.1162,0.1259,0.1312,0.1399,0.1372,0.1386,0.1366,0.1529,0.1525,0.1558,0.157,0.158,0.1515,0,0,0,0,0]},{"header":{"parameterUnit":"m.s-1","parameterCategory":2,"la1":30.2991,"la2":30.254,"lo1":-89.0895,"lo2":-89.0444,"dy":0.0017,"dx":0.0017,"nx":28,"ny":28,"refTime":"2025-03-07T09:00:00:Z","depth":"4","parameterNumber":3,"parameterNumberName":"V-component_of_CURRENTS"},"data":[0,0,0,0,0,0,0,0,0,0,0,0,0,0,0,0,0,0,0,0,0,0,0,0,0,0,0,0,0,0,0,0,0,0,0,0,0,0,0,0,0,0,0,0,0,0,0,0,0,0,0,0,0,0,0,0,0,0,0.0118,0.0118,0,0.0115,0.0115,0.0115,0.0112,0.0112,0.0112,0.0112,0.0104,0.0104,0.0104,0,0,0,0,0,0,0,0,0,0,0,0,0,0.0093,0.0094,0.0118,0.0118,0.0118,0.0115,0.0115,0.0115,0.0112,0.0112,0.0112,0.0112,0.0105,0.0104,0.0104,0,0,0,0,0,0,0,0,0,0,0,0,0,0.0098,0.0094,0.0118,0.0116,0.0116,0.0115,0.0115,0.0115,0.0112,0.0112,0.0112,0.0112,0.0105,0.0104,0.0104,0.0103,0,0,0.0103,0.0103,0,0,0,0,0,0,0,0,0.0098,0.0099,0.0117,0.0117,0.0116,0.0114,0.0103,0.0111,0.0112,0.0113,0.0112,0.0112,0.0107,0.0107,0.0106,0.0103,0.0102,0.0103,0.0103,0.0103,0.0103,0,0,0,0,0,0,0,0.0098,0.0099,0.0117,0.0117,0.0117,0.0106,0.0107,0.0104,0.011,0.0113,0.0113,0.0113,0.0107,0.0106,0.0106,0.0102,0.0103,0.0103,0.0103,0.0103,0.0095,0.0095,0,0,0,0,0,0,0.01,0.0099,0.0117,0.0117,0.0107,0.0106,0.0107,0.0114,0.011,0.011,0.0113,0.0113,0.0107,0.0106,0.0106,0.0111,0.0103,0.0103,0.0103,0.0095,0.0095,0.0095,0,0,0,0,0,0,0.01,0.0102,0.0117,0.0107,0.0108,0.0107,0.0115,0.0114,0.0115,0.011,0.011,0.0115,0.0107,0.0106,0.0106,0.011,0.0103,0.0102,0.0095,0.0095,0.0095,0.0117,0,0,0,0,0,0,0.0099,0.0102,0.0108,0.0108,0.0109,0.0121,0.0115,0.0114,0.0115,0.0115,0.0111,0.0111,0.0107,0.0106,0.0106,0.011,0.0102,0.0095,0.0095,0.0095,0.0117,0.0118,0.0119,0,0,0,0,0,0.0099,0.0108,0.0108,0.011,0.0117,0.0121,0.0121,0.0119,0.0116,0.0119,0.0115,0.0111,0.0105,0.0106,0.0105,0.011,0.0095,0.0095,0.0095,0.0116,0.0118,0.0119,0,0,0,0,0,0,0.0098,0.0108,0.0109,0.012,0.0122,0.0121,0.0123,0.0121,0.012,0.0119,0.0113,0.0112,0.0113,0.0106,0.0108,0.0106,0.0098,0.0098,0.0115,0.0116,0.0118,0.0127,0.0102,0,0,0,0,0,0.0101,0.0112,0.0116,0.0125,0.0127,0.0125,0.0126,0.0125,0.0124,0.0123,0.012,0.0114,0.0111,0.011,0.0106,0.0107,0.0092,0.0107,0.0109,0.011,0.0116,0.0092,0.0092,0.0094,0.0094,0.0094,0,0,0.0103,0.011,0.0116,0.0125,0.0126,0.0135,0.0126,0.013,0.0138,0.0123,0.013,0.012,0.0112,0.0113,0.0112,0.0109,0.01,0.011,0.0111,0.0117,0.0092,0.0091,0.0091,0.0094,0.0094,0.0094,0,0,0.0113,0.0119,0.0132,0.0137,0.0142,0.0142,0.0144,0.0145,0.0147,0.015,0.014,0.0132,0.013,0.0123,0.012,0.0125,0.0108,0.0122,0.0138,0.0114,0.0114,0.0113,0.009,0.0088,0.0123,0.0123,0.0123,0,0.0114,0.0135,0.0135,0.0148,0.0157,0.0147,0.0163,0.0162,0.0162,0.0164,0.0157,0.0145,0.0136,0.0135,0.0136,0.0129,0.0112,0.0134,0.0116,0.0115,0.0115,0.0091,0.0088,0.0124,0.0124,0.0124,0.0124,0,0.0136,0.0152,0.0159,0.0177,0.0183,0.0194,0.0196,0.0199,0.0196,0.0193,0.0191,0.0173,0.0166,0.0158,0.0151,0.0142,0.013,0.0121,0.0114,0.0116,0.0091,0.0087,0.0125,0.0125,0.0125,0.0124,0,0,0.0142,0.017,0.0174,0.0191,0.0202,0.0212,0.0223,0.0233,0.0244,0.0229,0.0237,0.0219,0.0203,0.0198,0.018,0.0158,0.0134,0.014,0.0138,0.0121,0.008,0.0075,0.007,0.012,0.0119,0.0119,0.0064,0,0.0161,0.0196,0.0204,0.0236,0.0255,0.0255,0.027,0.0275,0.0273,0.0276,0.0249,0.0249,0.022,0.0219,0.019,0.0153,0.0126,0.015,0.0079,0.0077,0.0074,0.0066,0.0118,0.0061,0.006,0.006,0.0059,0,0.0182,0.0206,0.0243,0.0277,0.0286,0.0302,0.0327,0.034,0.0337,0.0335,0.0319,0.0297,0.0268,0.0242,0.017,0.0187,0.0137,0.01,0.0097,0.0084,0.0064,0.0059,0.0052,0.0053,0.0053,0.0054,0.0054,0,0.0195,0.0233,0.0267,0.0279,0.0312,0.0331,0.0348,0.0358,0.0381,0.0374,0.0381,0.0336,0.0323,0.0252,0.0174,0.0172,0.0089,0.0076,0.0021,0.002,0.0032,0.0033,0.002,0.002,0.002,0.002,0.002,0,0.0214,0.0242,0.0278,0.0299,0.0344,0.0358,0.0402,0.041,0.0429,0.0457,0.0414,0.0417,0.0325,0.0266,0.0185,0.0093,0.0094,0.0024,0.0006,0.0042,0.0045,0.0029,0.0031,0.0018,0.0019,0.0019,0.0019,0,0.0224,0.0247,0.029,0.0334,0.0353,0.0387,0.0446,0.0479,0.0488,0.0521,0.0523,0.0479,0.0404,0.0302,0.019,0.0118,0.0025,-0.001,0.0038,0.0023,-0.0032,-0.0029,-0.0075,-0.0075,-0.0076,-0.0076,-0.0077,0,0.0233,0.0256,0.0317,0.0351,0.0375,0.043,0.0473,0.0507,0.0543,0.0559,0.0574,0.0517,0.0471,0.0308,0.0197,0.0038,0.0013,-0.004,-0.004,-0.0029,-0.0042,-0.0038,-0.0034,-0.0078,-0.0078,-0.0078,-0.0078,0,0.025,0.0271,0.031,0.0377,0.043,0.0494,0.0553,0.0583,0.0623,0.0629,0.0617,0.0534,0.0448,0.0316,0.0192,0.0077,-0.0008,-0.0046,-0.0046,-0.0047,-0.0033,-0.0045,-0.004,-0.008,-0.008,-0.0079,-0.0079,0,0.0263,0.0291,0.0343,0.0404,0.0471,0.0538,0.0571,0.0613,0.0649,0.0659,0.0654,0.0558,0.0505,0.0336,0.0223,0.0109,0.0077,0.0033,0.0028,0.0029,0.0073,0.0106,0.0087,0,0,0,0,0,0.0277,0.0311,0.0366,0.0435,0.0502,0.0544,0.0617,0.0646,0.0678,0.0675,0.0667,0.0585,0.0423,0.0354,0.0239,0.0205,0.0053,0.0065,-0.0001,-0.009,-0.0088,-0.0056,0,0,0,0,0,0,0.0286,0.0337,0.0365,0.0451,0.05,0.0581,0.0631,0.0656,0.0654,0.0662,0.0579,0.0543,0.0386,0.0484,0.0231,0.0198,0.0137,-0.0008,-0.001,-0.0092,-0.009,-0.0088,-0.0054,0,0,0,0,0]}]]